Temperature
17 17 17 17 17 17 17 17 17 17 17 17 17 17 17 17 17 17 17 17 17 17 17 17 17 17 16 16 16 16 16 16 16 16 16 16 16 16 16 16 16 16 15
17 17 17 17 17 17 17 17 17 17 17 17 17 17 17 17 17 17 17 17 17 17 17 17 17 17 17 17 16 16 16 16 16 16 16 16 16 16 16 16 16 15 15
18 18 17 17 17 17 17 17 17 17 17 17 17 17 17 17 17 17 17 17 17 17 17 17 17 17 17 17 16 16 16 16 16 16 16 16 16 16 16 16 16 15 15
18 17 17 17 17 17 17 17 17 17 17 17 17 17 17 17 17 17 17 17 17 17 17 17 17 17 17 17 16 16 16 16 16 16 16 16 16 16 16 16 16 15 15
18 17 17 17 17 17 17 17 17 17 17 17 17 17 17 17 17 17 17 17 17 17 17 17 17 17 17 17 17 16 16 16 16 16 16 16 16 16 16 16 16 15 15
18 17 17 17 17 17 17 17 17 17 17 17 17 17 17 17 17 17 17 17 17 17 17 16 16 17 17 17 17 17 16 16 16 16 16 16 16 16 16 16 15 15 15
17 18 17 17 17 17 17 17 17 17 17 17 17 17 17 17 17 17 17 17 17 17 17 17 16 16 16 17 17 17 16 16 16 16 16 16 16 16 16 16 16 15 15
18 17 17 17 17 17 17 17 17 17 17 17 17 17 18 18 17 17 17 17 17 17 17 17 16 16 16 16 16 17 17 16 16 16 16 16 16 16 16 16 15 15 15
18 18 17 17 17 17 17 17 17 17 17 17 17 17 18 18 18 17 17 17 17 17 17 17 16 16 16 16 16 16 16 16 16 16 16 16 16 16 16 15 15 15 15
18 18 17 17 17 17 17 17 17 17 17 17 17 17 17 17 17 17 17 17 17 16 16 16 16 16 16 16 16 16 16 16 16 16 16 16 16 16 15 15 15 15 15
18 17 17 17 17 17 17 17 17 17 17 17 17 17 17 17 17 17 17 16 16 16 16 16 16 16 16 16 16 16 16 16 16 16 16 16 16 15 15 15 15 15 15
17 17 17 17 17 17 17 17 17 17 17 17 17 16 16 17 17 17 16 16 16 16 16 16 16 16 16 16 16 16 16 16 16 15 15 15 15 15 15 15 15 15 14
18 18 17 17 17 17 17 17 17 17 17 17 17 16 16 16 16 16 16 16 16 16 16 16 16 16 15 15 15 16 16 15 15 15 15 15 15 15 15 15 14 14 14
18 18 17 17 17 17 17 17 17 17 17 17 16 16 16 16 16 16 16 16 16 16 16 16 15 15 15 15 15 15 15 15 15 15 15 15 15 14 14 14 14 14 14
18 18 18 17 17 17 17 17 17 17 17 16 16 16 16 16 16 16 16 16 15 16 16 15 15 15 15 15 15 15 15 15 15 15 15 14 14 14 14 14 14 14 14
18 18 18 17 17 17 17 17 17 17 17 17 16 16 16 16 16 15 15 15 15 15 15 15 15 14 14 14 14 14 14 14 14 14 14 14 14 14 14 14 14 13 13
18 18 18 17 17 17 17 17 17 17 16 16 16 16 16 16 16 15 15 15 15 15 15 15 14 14 14 14 14 14 14 13 13 13 13 13 13 13 13 13 13 13 13
18 18 17 17 17 17 17 17 16 16 16 16 16 16 16 16 16 15 15 15 15 14 14 14 14 14 13 13 13 13 13 13 13 13 13 13 13 13 13 13 13 13 13
18 17 17 17 17 17 16 16 16 16 16 16 15 15 15 15 15 15 15 14 14 14 14 14 14 13 13 13 13 13 12 12 12 12 12 12 12 12 12 12 12 12 12
18 17 17 17 17 16 16 16 16 16 16 15 15 15 15 15 15 15 14 14 14 14 14 14 13 13 13 13 12 12 12 12 12 12 12 12 12 12 12 12 12 12 11
17 17 17 17 17 16 16 16 15 15 15 15 15 15 15 15 15 14 14 14 14 14 14 13 13 13 12 12 12 12 12 12 11 11 11 11 11 11 11 11 11 11 11
17 17 17 16 16 16 16 16 15 15 15 15 15 14 14 14 14 14 14 14 14 13 13 13 13 12 12 12 12 12 12 11 11 11 11 11 11 11 10 10 11 11 10
17 17 16 16 16 16 16 15 15 15 15 14 14 14 13 14 14 14 14 14 13 13 13 13 12 12 12 12 12 11 11 11 11 11 11 11 10 10 10 10 10 10 10
17 16 16 16 16 16 15 15 15 14 14 14 14 14 14 14 13 13 13 13 13 13 13 12 12 12 12 12 11 11 11 11 11 10 10 10 10 10 10 10 10 10 10
16 16 16 16 15 15 15 15 14 14 14 14 13 13 13 13 13 13 13 12 12 12 12 12 12 12 12 11 11 11 11 11 11 10 10 10 10 10 10 10 10 10 9
16 16 15 15 15 15 15 15 14 13 13 13 13 13 13 13 13 13 12 12 12 12 11 11 11 11 11 11 11 11 10 10 10 10 10 10 10 10 9 9 9 9 9
Wind_Speed
3 3 3 3 3 4 5 4 3 4 3 4 3 3 2 2 2 3 6 10 10 9 9 9 10 10 10 10 10 9 9 9 9 9 9 9 8 8 8 8 8 8 7
2 3 4 4 3 3 3 3 4 4 3 2 2 2 2 2 3 3 3 8 11 10 10 10 11 11 11 11 11 11 11 11 11 11 10 10 10 10 10 10 9 9 9
2 3 2 3 3 3 4 4 4 4 4 3 3 3 3 2 2 3 3 4 7 11 11 11 11 11 12 12 12 12 12 12 12 12 12 12 11 11 11 11 11 10 10
3 3 2 2 2 3 4 3 4 3 3 3 3 2 3 2 3 4 4 5 4 5 10 12 11 11 12 13 13 13 14 14 13 13 13 13 13 13 13 13 12 12 12
4 3 2 2 3 3 3 4 3 3 3 3 3 3 3 3 3 4 4 5 5 5 5 10 12 11 12 12 13 14 14 14 15 15 14 14 14 14 14 14 13 13 13
4 4 3 3 4 3 3 2 2 2 3 3 3 2 3 3 3 3 4 4 4 5 6 6 8 10 13 12 13 14 14 15 15 15 15 15 15 15 16 16 15 15 15
5 4 3 3 3 3 3 3 3 3 3 3 2 3 3 4 3 3 3 3 3 4 4 5 5 5 8 13 13 13 14 14 15 15 15 16 16 16 16 16 16 16 16
5 5 4 3 3 3 3 4 3 3 3 3 3 3 3 3 3 3 2 3 3 3 4 4 4 5 6 6 7 11 11 13 13 13 14 14 15 16 16 16 16 16 15
4 4 4 4 3 3 3 3 3 4 3 4 4 3 3 2 1 2 2 2 2 2 3 2 4 4 5 5 4 7 8 9 11 13 13 13 14 15 15 15 16 16 15
4 4 4 3 3 3 3 4 3 3 4 4 4 4 4 3 3 2 2 2 2 3 3 3 3 3 3 3 2 0 3 6 7 8 10 11 11 12 13 13 14 15 15
3 4 4 3 3 3 3 3 2 3 4 5 4 4 4 4 5 4 4 3 2 2 2 3 2 2 2 3 2 1 2 3 4 6 7 7 8 8 9 10 10 11 12
3 4 4 4 4 3 3 4 3 4 4 5 5 4 5 4 5 5 5 5 4 3 3 2 2 2 2 2 1 2 1 2 3 4 5 6 6 7 7 7 8 8 9
3 4 4 4 4 4 4 4 4 4 4 5 5 5 5 5 5 5 5 5 5 4 3 3 2 2 2 1 0 2 1 2 2 3 4 4 4 4 5 6 6 7 8
3 3 4 4 4 4 4 4 4 4 4 4 5 5 5 5 5 5 5 5 5 5 4 3 2 2 1 1 1 1 1 2 2 2 2 3 3 3 3 3 4 6 6
4 4 4 4 4 4 4 4 3 3 3 4 4 4 5 4 5 5 5 5 5 5 4 3 2 2 1 1 1 0 0 3 2 2 2 2 2 2 2 2 2 3 3
4 4 5 4 4 3 3 3 3 3 3 3 3 3 4 4 4 5 5 5 6 6 5 2 2 2 1 1 2 1 2 4 4 4 4 3 3 3 2 1 1 2 2
5 5 4 4 4 3 3 3 3 3 3 3 3 4 4 5 4 4 5 5 5 5 5 4 2 1 1 1 2 2 2 2 3 5 5 4 3 3 3 2 2 2 2
5 5 4 4 4 3 3 3 3 3 3 4 4 4 4 3 4 4 4 5 5 5 5 4 3 2 2 2 2 2 2 2 2 5 5 4 4 3 3 3 3 3 3
5 5 4 4 4 3 3 3 3 3 3 3 4 3 3 3 4 3 4 4 4 4 4 4 3 2 2 2 2 2 2 1 2 4 6 5 5 4 3 3 4 4 4
6 5 4 4 4 3 3 3 3 3 3 3 3 3 3 3 4 4 4 4 4 4 3 4 3 3 3 3 3 3 2 2 1 2 3 3 5 5 5 4 4 4 4
6 5 5 4 4 3 3 3 3 3 2 2 2 2 2 1 2 3 3 3 3 4 4 4 4 3 3 3 3 3 3 2 1 1 1 2 3 3 4 5 5 4 3
5 5 5 4 4 3 2 0 3 2 2 2 2 1 1 1 1 1 1 2 3 4 4 3 4 4 4 4 3 3 3 2 1 1 1 1 1 1 2 3 4 4 3
6 5 5 4 4 3 3 2 2 2 1 1 1 2 2 1 1 1 2 3 2 1 2 3 3 3 3 3 4 4 3 3 2 1 2 1 1 1 1 3 5 5 4
5 5 5 5 4 4 4 2 3 2 1 1 1 2 2 1 1 2 1 1 1 1 2 2 2 2 2 1 3 4 3 2 1 1 1 2 1 1 1 2 6 7 6
5 5 5 5 5 4 4 3 4 3 2 2 1 1 2 1 1 2 1 1 1 1 2 3 2 2 1 3 3 2 2 2 2 1 1 2 2 2 2 2 5 8 7
6 5 5 4 4 3 4 3 4 3 2 2 2 2 1 1 1 1 1 2 2 1 2 3 3 2 2 3 5 3 3 3 2 2 1 2 2 2 2 2 2 5 6
Wind_Direction
157 153 154 161 180 163 170 177 176 158 170 182 192 177 172 182 196 186 148 163 182 193 198 199 196 195 197 197 199 204 205 202 202 201 202 202 200 198 197 197 199 200 202
157 176 171 178 182 179 177 180 172 177 188 184 201 208 220 202 196 208 188 170 184 197 205 209 207 204 205 205 206 210 212 212 211 211 211 209 209 210 209 208 209 211 211
183 206 185 186 181 178 182 197 187 188 191 193 206 221 228 228 221 223 227 210 191 193 201 211 216 213 214 214 214 216 218 218 218 216 215 215 216 217 217 217 218 220 221
215 222 207 200 186 197 194 192 205 197 202 207 213 234 235 214 226 225 226 222 221 201 194 202 212 216 218 221 221 221 220 221 221 219 219 219 221 222 222 222 224 225 225
221 224 218 207 210 211 214 219 193 202 206 213 221 220 233 230 226 226 224 226 220 226 220 187 199 212 220 225 225 225 226 225 222 222 223 223 223 224 225 225 226 227 224
224 229 211 213 221 216 224 222 210 217 221 221 240 245 241 234 225 229 233 223 219 223 230 219 205 206 213 224 229 232 232 228 227 226 227 227 226 226 227 226 227 227 226
218 230 235 210 226 222 228 220 219 210 218 205 230 247 239 229 228 228 232 240 229 229 227 226 234 231 207 209 221 230 233 230 230 229 230 230 230 230 228 228 229 229 228
218 216 224 225 221 227 226 228 229 239 228 216 236 248 237 213 203 218 215 224 238 231 225 225 230 235 244 223 205 212 224 230 229 231 233 232 231 230 230 230 229 227 226
216 227 219 232 228 240 228 231 229 234 244 236 237 250 257 256 273 200 216 229 246 255 250 245 240 241 240 245 239 204 213 224 231 233 234 233 232 230 228 228 228 228 227
216 215 217 225 237 243 239 241 232 247 251 249 241 249 270 280 261 247 220 224 237 250 261 262 261 249 248 244 239 163 191 217 230 238 238 235 232 229 227 228 229 230 229
215 221 220 227 230 241 245 259 257 258 253 258 253 251 254 249 247 250 258 255 248 249 251 256 266 268 257 245 242 218 181 214 232 241 241 237 233 229 229 228 230 234 235
211 213 214 222 230 235 232 238 244 243 254 264 266 257 252 251 250 246 254 255 261 260 249 248 242 241 243 249 257 90 138 219 239 244 241 239 239 236 235 233 233 237 241
208 206 216 219 230 228 231 233 234 255 253 257 258 261 260 259 261 259 255 259 268 267 254 236 232 231 243 265 299 93 191 207 222 237 237 240 241 237 237 238 241 240 240
220 210 212 220 228 230 231 229 237 240 248 260 264 266 265 259 258 255 250 258 265 262 250 244 223 228 253 258 59 137 147 132 168 203 219 222 219 213 223 235 246 241 236
211 206 211 212 216 221 232 235 242 247 248 256 260 255 261 264 260 257 255 253 259 266 264 246 237 238 236 230 100 131 86 105 128 145 151 155 159 166 185 221 241 243 224
214 210 205 207 213 217 222 228 233 232 239 248 261 268 266 266 261 255 255 255 257 259 262 260 250 242 183 180 124 123 101 113 117 126 122 116 115 113 117 147 191 191 199
203 205 204 204 204 208 212 217 232 234 239 247 255 259 262 270 266 260 254 250 250 249 252 254 248 206 200 214 153 157 160 153 122 126 124 115 110 103 94 93 117 128 146
194 193 195 197 202 201 203 216 231 239 243 253 259 265 269 266 262 262 260 253 250 246 242 244 240 227 219 201 175 188 160 144 123 122 128 129 125 109 97 99 105 112 119
186 187 186 190 195 197 203 217 231 242 251 258 262 263 265 266 267 266 262 257 252 249 241 232 229 216 205 181 179 179 155 160 156 139 143 147 144 136 130 124 119 116 114
179 181 180 181 191 197 203 216 224 235 242 249 257 259 262 266 272 269 258 254 252 250 234 226 221 209 193 180 192 190 184 185 193 153 127 142 157 166 160 144 133 127 121
176 173 174 179 188 198 209 221 224 229 238 244 249 256 263 290 316 290 274 262 248 243 230 223 221 212 199 191 208 206 206 194 200 185 160 175 172 162 152 151 146 137 140
174 176 179 182 188 192 111 92 262 225 240 256 263 259 234 230 250 227 277 283 269 243 239 229 225 223 218 212 209 210 201 202 215 177 229 234 206 173 138 127 130 146 160
176 183 187 189 189 159 127 149 286 251 225 255 274 275 275 291 256 274 216 216 228 231 248 246 243 242 227 215 209 206 212 224 249 196 218 239 216 204 172 132 146 168 181
183 186 189 191 191 167 147 169 251 230 222 203 233 254 260 279 338 306 255 210 195 182 217 233 235 254 251 218 212 218 221 218 214 183 250 268 247 266 223 158 161 177 190
179 183 190 193 189 172 159 188 243 215 212 217 235 268 267 217 28 313 220 173 148 135 129 102 71 47 76 160 183 192 187 198 227 214 224 269 273 275 251 211 174 183 196
180 182 181 185 188 185 160 181 248 221 207 206 195 185 91 80 78 324 198 180 175 172 141 123 124 131 141 155 184 213 213 219 241 232 184 248 258 262 246 229 209 197 206
Height
1566 1567 1567 1568 1570 1571 1572 1572 1573 1574 1575 1575 1576 1577 1577 1577 1578 1578 1578 1577 1577 1577 1577 1578 1578 1579 1580 1580 1581 1582 1582 1583 1584 1585 1586 1586 1587 1588 1588 1589 1589 1590 1590
1566 1567 1567 1568 1569 1570 1572 1572 1573 1573 1574 1575 1575 1576 1576 1577 1577 1577 1577 1576 1576 1576 1576 1577 1577 1578 1578 1579 1580 1581 1581 1582 1583 1584 1584 1585 1586 1586 1587 1587 1588 1588 1589
1566 1566 1567 1568 1569 1570 1570 1571 1572 1573 1573 1574 1574 1575 1575 1575 1576 1576 1576 1576 1576 1575 1575 1575 1576 1576 1577 1578 1579 1579 1580 1581 1582 1582 1583 1583 1584 1585 1585 1586 1586 1587 1587
1565 1566 1567 1568 1568 1569 1569 1570 1571 1571 1572 1572 1573 1573 1574 1573 1573 1574 1574 1574 1575 1575 1574 1573 1574 1575 1575 1576 1577 1577 1578 1579 1580 1580 1581 1581 1582 1582 1583 1584 1584 1585 1585
1564 1565 1566 1566 1567 1568 1568 1569 1570 1570 1570 1571 1571 1571 1572 1572 1572 1572 1572 1572 1572 1572 1573 1572 1572 1573 1573 1574 1574 1575 1576 1576 1577 1578 1579 1579 1579 1580 1580 1581 1581 1582 1582
1563 1564 1565 1565 1566 1567 1567 1567 1568 1568 1569 1569 1570 1570 1570 1570 1570 1570 1570 1571 1570 1570 1571 1571 1571 1570 1571 1571 1572 1572 1573 1574 1574 1575 1576 1576 1577 1577 1578 1578 1579 1579 1580
1562 1562 1564 1564 1564 1565 1566 1566 1567 1567 1567 1567 1568 1568 1568 1568 1568 1567 1568 1568 1568 1568 1569 1568 1569 1569 1569 1569 1569 1570 1570 1571 1571 1572 1573 1573 1573 1574 1574 1575 1575 1576 1577
1560 1562 1562 1563 1563 1564 1564 1564 1564 1565 1565 1566 1566 1566 1566 1567 1565 1566 1566 1566 1566 1567 1566 1566 1566 1566 1567 1567 1567 1567 1567 1567 1568 1568 1569 1569 1570 1570 1571 1571 1572 1572 1573
1559 1559 1560 1561 1561 1562 1563 1562 1563 1563 1564 1564 1564 1565 1565 1564 1564 1564 1564 1564 1564 1563 1564 1564 1563 1563 1563 1564 1564 1564 1564 1564 1564 1565 1565 1565 1566 1566 1567 1567 1568 1568 1569
1557 1558 1559 1559 1559 1560 1561 1561 1561 1561 1562 1562 1562 1562 1563 1562 1563 1562 1562 1561 1561 1561 1561 1561 1561 1561 1560 1561 1560 1560 1560 1561 1561 1561 1561 1562 1562 1563 1563 1563 1564 1564 1565
1556 1556 1557 1557 1557 1558 1558 1559 1559 1559 1560 1560 1560 1560 1560 1560 1560 1560 1559 1559 1559 1559 1558 1557 1558 1558 1557 1558 1557 1557 1557 1557 1557 1557 1557 1558 1558 1559 1559 1559 1560 1560 1561
1554 1554 1555 1555 1556 1556 1556 1556 1556 1557 1557 1557 1557 1558 1557 1557 1557 1557 1557 1556 1556 1556 1555 1555 1555 1555 1555 1555 1554 1554 1554 1554 1554 1554 1554 1554 1554 1554 1555 1555 1555 1556 1556
1553 1553 1553 1553 1554 1554 1554 1554 1554 1554 1554 1554 1554 1554 1554 1554 1554 1554 1554 1553 1553 1553 1553 1553 1552 1552 1552 1552 1551 1550 1550 1550 1550 1550 1550 1550 1550 1550 1550 1550 1551 1551 1551
1551 1551 1551 1551 1552 1552 1552 1552 1553 1552 1552 1552 1551 1551 1551 1551 1551 1551 1551 1551 1550 1550 1550 1550 1550 1549 1549 1549 1548 1547 1547 1546 1546 1546 1546 1546 1546 1546 1546 1546 1546 1547 1547
1549 1549 1549 1549 1550 1550 1550 1550 1551 1550 1550 1550 1549 1548 1548 1548 1548 1548 1548 1548 1549 1548 1547 1547 1547 1546 1546 1545 1545 1544 1544 1543 1543 1542 1542 1542 1542 1542 1542 1542 1542 1542 1542
1546 1546 1547 1547 1548 1548 1548 1548 1548 1548 1548 1547 1546 1546 1545 1545 1544 1544 1544 1544 1545 1545 1545 1544 1544 1544 1543 1542 1542 1541 1541 1540 1539 1539 1539 1539 1539 1538 1538 1538 1538 1538 1538
1543 1543 1544 1545 1545 1546 1546 1546 1546 1546 1545 1545 1544 1543 1542 1541 1541 1541 1541 1541 1541 1541 1541 1541 1541 1541 1540 1539 1539 1539 1538 1538 1537 1536 1536 1536 1536 1535 1535 1535 1535 1534 1534
1540 1541 1541 1542 1543 1543 1544 1544 1543 1543 1543 1542 1541 1541 1540 1539 1538 1538 1538 1537 1538 1538 1538 1538 1538 1538 1537 1537 1536 1536 1536 1536 1535 1534 1534 1533 1533 1533 1532 1532 1532 1532 1531
1538 1539 1539 1540 1541 1541 1542 1541 1541 1541 1540 1540 1539 1538 1537 1536 1535 1535 1534 1534 1534 1535 1535 1535 1535 1535 1535 1535 1534 1534 1534 1533 1533 1533 1532 1531 1531 1530 1530 1529 1529 1529 1528
1536 1537 1537 1538 1538 1539 1539 1539 1539 1538 1537 1537 1536 1535 1534 1534 1533 1532 1532 1531 1531 1531 1532 1532 1532 1532 1532 1532 1532 1532 1531 1531 1531 1531 1530 1530 1529 1528 1528 1527 1526 1526 1526
1534 1535 1535 1536 1536 1536 1536 1536 1536 1536 1535 1534 1534 1533 1532 1531 1530 1530 1529 1529 1529 1528 1529 1529 1529 1529 1529 1529 1529 1529 1529 1529 1529 1529 1528 1528 1528 1527 1526 1525 1524 1524 1524
1531 1532 1533 1533 1534 1534 1533 1533 1534 1533 1532 1532 1531 1530 1530 1529 1528 1527 1527 1526 1526 1526 1526 1526 1526 1526 1526 1527 1527 1527 1527 1527 1527 1527 1527 1527 1526 1526 1524 1523 1522 1522 1522
1529 1530 1531 1531 1531 1531 1531 1531 1531 1531 1529 1529 1528 1528 1527 1526 1526 1525 1524 1523 1523 1523 1523 1523 1524 1523 1524 1524 1524 1524 1524 1525 1525 1525 1525 1524 1525 1524 1523 1522 1521 1520 1520
1527 1528 1529 1529 1529 1528 1528 1528 1528 1528 1526 1525 1525 1524 1524 1523 1523 1523 1522 1522 1521 1521 1521 1521 1521 1521 1521 1521 1521 1522 1522 1522 1522 1522 1522 1523 1522 1522 1521 1520 1519 1518 1518
1524 1525 1526 1526 1526 1526 1525 1525 1525 1525 1524 1523 1522 1522 1521 1521 1520 1520 1520 1520 1520 1519 1519 1519 1519 1519 1519 1519 1519 1520 1520 1521 1521 1521 1520 1521 1520 1520 1519 1519 1518 1517 1516
1521 1522 1523 1523 1523 1523 1523 1522 1522 1523 1522 1521 1520 1520 1519 1518 1518 1518 1518 1518 1518 1518 1518 1518 1518 1517 1517 1517 1518 1518 1519 1519 1519 1519 1518 1518 1518 1518 1518 1517 1516 1515 1514